Flag for China Weather past 2 weeks in Foochow, Fujian, China

Now
55 °F

Haze.


Feels Like: 54 °F
Forecast: 44 / 54 °F
Wind: 6 mph from West

Location: Fuzhou Airport

Current Time: Mar 3, 2015 at 9:08:23 AM

Latest Report: Mar 3, 2015 at 8:00 AM


Visibility: 2 mi

Pressure: 29.95 "Hg

Humidity: 72%

Dew point: 46 °F

Location of FoochowLocation

Historic Weather in Foochow — Graph

°F

Foochow temperature yesterday

Maximum temperature yesterday: 55 °F (at 10:00 AM)
Minimum temperature yesterday: 50 °F (at 1:00 AM)
Average temperature yesterday: 52 °F

Past Weeks' High & Low Weather Summary

 TemperatureHumidityPressure
High77 °F (Feb 16, 1:00 PM)100% (Feb 22, 3:00 AM)30.36 "Hg (Feb 22, 3:00 AM)
Low48 °F (Feb 28, 4:00 AM)49% (Feb 17, 2:00 PM)29.86 "Hg (Feb 25, 4:00 PM)
Average55 °F82%30.11 "Hg
* Reported Feb 16 8:00 AM — Mar 3 8:00 AM, Foochow, Weather by CustomWeather, © 2015

Note: Actual official high and low records may vary slightly from our data, if they occured in-between our weather recording intervals... More about our weather records

Advertising

Foochow weather history for previous 24 hours

 ConditionsComfort  
Time TempWeatherWind HumidityBarometerVisibility
8:00 AM
Tue, Mar 3
55 °FHaze.6 mph72%29.95 "Hg2 mi
7:00 AM54 °FFog.1 mph77%29.92 "Hg2 mi
6:00 AM52 °FFog.1 mph77%29.92 "Hg3 mi
5:00 AM54 °FFog.6 mph77%29.92 "Hg3 mi
4:00 AM54 °FPassing clouds.3 mph72%29.92 "Hg3 mi
3:00 AM52 °FFog.3 mph77%29.95 "Hg3 mi
2:00 AM52 °FFog.3 mph77%29.98 "Hg3 mi
1:00 AM54 °FOvercast.1 mph72%30.01 "Hg3 mi
12:00 AM52 °FOvercast.1 mph72%30.01 "Hg3 mi
11:00 PM
Mon, Mar 2
52 °FOvercast.1 mph72%30.01 "Hg3 mi
10:00 PM54 °FOvercast.1 mph67%30.01 "Hg2 mi
9:00 PM54 °FOvercast.1 mph67%30.01 "Hg3 mi
8:00 PM54 °FOvercast.3 mph67%30.01 "Hg4 mi
7:00 PM54 °FOvercast.3 mph67%30.01 "Hg3 mi
6:00 PM54 °FOvercast.6 mph67%30.01 "Hg3 mi
5:00 PM54 °FOvercast.8 mph67%30.04 "Hg3 mi
4:00 PM54 °FOvercast.6 mph63%30.04 "Hg3 mi
3:00 PM54 °FOvercast.6 mph63%30.04 "Hg4 mi
2:00 PM54 °FOvercast.8 mph63%30.07 "Hg4 mi
1:00 PM54 °FPartly sunny.10 mph63%30.09 "Hg4 mi
12:00 PM54 °FPartly sunny.13 mph63%30.15 "Hg5 mi
11:00 AM54 °FPartly sunny.13 mph63%30.18 "Hg5 mi
10:00 AM55 °FSunny.13 mph59%30.21 "Hg10 mi
9:00 AM54 °FPassing clouds.13 mph63%30.21 "HgN/A
Weather by CustomWeather, © 2015

See weather overviewHow to use our weather pages